Lincoln County, Oregon, United States
Lat: 44.65N, Lon: 123.85W
Wx Zone: ORZ004
Local Info
Past Weather Observations for Yesterday

NOTE: This archive is for the closest National Weather Service station to Lincoln County. Information may differ from the station used for current weather conditions.

Click here for Long-term Archive

Time Weather Temperature Dewpoint Humidity Pressure Winds Precip Visibility
23:55
Overcast
54°F / 12°C 50°F / 10°C 88% 30.12 in
(1020 mb)
Calm - 10SM
23:35
Overcast
54°F / 12°C 50°F / 10°C 88% 30.12 in
(1020 mb)
Calm - 10SM
23:15
Overcast
54°F / 12°C 50°F / 10°C 88% 30.12 in
(1020 mb)
Calm - 10SM
22:55
Overcast
54°F / 12°C 50°F / 10°C 88% 30.12 in
(1020 mb)
Calm - 10SM
22:35
Mostly Cloudy
52°F / 11°C 50°F / 10°C 94% 30.12 in
(1020 mb)
Calm - 10SM
22:15
Mostly Cloudy
54°F / 12°C 50°F / 10°C 88% 30.12 in
(1020 mb)
Calm - 10SM
21:55
Partly Cloudy
54°F / 12°C 50°F / 10°C 88% 30.12 in
(1020 mb)
NNE 3.5 mph
(NNE 6 kph)
- 10SM
21:35
Partly Cloudy
54°F / 12°C 50°F / 10°C 88% 30.12 in
(1020 mb)
N 5.8 mph
(N 9 kph)
- 10SM
21:15
Partly Cloudy
54°F / 12°C 50°F / 10°C 88% 30.09 in
(1019 mb)
N 9.2 mph
(N 15 kph)
- 10SM
20:55
Partly Cloudy
54°F / 12°C 50°F / 10°C 88% 30.09 in
(1019 mb)
N 5.8 mph
(N 9 kph)
- 10SM
20:35
Partly Cloudy
54°F / 12°C 50°F / 10°C 88% 30.09 in
(1019 mb)
N 6.9 mph
(N 11 kph)
- 10SM
20:15
Clear
54°F / 12°C 50°F / 10°C 88% 30.09 in
(1019 mb)
N 8.1 mph
(N 13 kph)
- 10SM
19:55
Clear
54°F / 12°C 50°F / 10°C 88% 30.09 in
(1019 mb)
N 9.2 mph
(N 15 kph)
- 10SM
19:35
Clear
54°F / 12°C 50°F / 10°C 88% 30.06 in
(1018 mb)
N 9.2 mph
(N 15 kph)
- 10SM
19:15
Clear
55°F / 13°C 52°F / 11°C 88% 30.06 in
(1018 mb)
N 9.2 mph
(N 15 kph)
- 10SM
18:55
Clear
55°F / 13°C 52°F / 11°C 88% 30.06 in
(1018 mb)
N 10.4 mph
(N 17 kph)
- 10SM
18:35
Clear
55°F / 13°C 52°F / 11°C 88% 30.06 in
(1018 mb)
N 10.4 mph
(N 17 kph)
- 10SM
18:15
Clear
57°F / 14°C 52°F / 11°C 82% 30.06 in
(1018 mb)
NNW 13.8 mph
(NNW 22 kph)
- 10SM
17:55
Clear
59°F / 15°C 52°F / 11°C 77% 30.06 in
(1018 mb)
N 15 mph
(N 24 kph)
- 10SM
17:35
Clear
59°F / 15°C 52°F / 11°C 77% 30.06 in
(1018 mb)
NNW 13.8 mph
(NNW 22 kph)
- 10SM
17:15
Clear
59°F / 15°C 52°F / 11°C 77% 30.06 in
(1018 mb)
NNW 18.4 mph
(NNW 30 kph)
- 10SM
16:55
Clear
59°F / 15°C 52°F / 11°C 77% 30.06 in
(1018 mb)
N 16.1 mph
(N 26 kph)
- 10SM
16:35
Clear
61°F / 16°C 52°F / 11°C 72% 30.06 in
(1018 mb)
NNW 17.3 mph
(NNW 28 kph)
- 10SM
16:15
Clear
61°F / 16°C 52°F / 11°C 72% 30.06 in
(1018 mb)
NNW 13.8 mph
(NNW 22 kph)
- 10SM
15:55
Clear
61°F / 16°C 54°F / 12°C 77% 30.06 in
(1018 mb)
NNW 15 mph
(NNW 24 kph)
- 10SM
15:35
Clear
61°F / 16°C 54°F / 12°C 77% 30.06 in
(1018 mb)
NNW 15 mph
(NNW 24 kph)
- 10SM
15:15
Clear
61°F / 16°C 54°F / 12°C 77% 30.06 in
(1018 mb)
NNW 15 mph
(NNW 24 kph)
- 10SM
14:55
Clear
61°F / 16°C 54°F / 12°C 77% 30.06 in
(1018 mb)
NNW 13.8 mph
(NNW 22 kph)
- 10SM
14:35
Clear
61°F / 16°C 52°F / 11°C 72% 30.06 in
(1018 mb)
NNW 16.1 mph
(NNW 26 kph)
- 10SM
14:15
Clear
61°F / 16°C 52°F / 11°C 72% 30.06 in
(1018 mb)
NNW 18.4 mph
(NNW 30 kph)
- 10SM
13:55
Clear
61°F / 16°C 52°F / 11°C 72% 30.06 in
(1018 mb)
NW 16.1 mph
(NW 26 kph)
- 10SM
13:35
Clear
61°F / 16°C 54°F / 12°C 77% 30.06 in
(1018 mb)
NNW 15 mph
(NNW 24 kph)
- 10SM
13:15
Clear
61°F / 16°C 54°F / 12°C 77% 30.06 in
(1018 mb)
NNW 13.8 mph
(NNW 22 kph)
- 10SM
12:55
Clear
61°F / 16°C 54°F / 12°C 77% 30.06 in
(1018 mb)
NNW 15 mph
(NNW 24 kph)
- 10SM
12:35
Clear
61°F / 16°C 54°F / 12°C 77% 30.06 in
(1018 mb)
NNW 13.8 mph
(NNW 22 kph)
- 10SM
12:15
Clear
59°F / 15°C 54°F / 12°C 82% 30.06 in
(1018 mb)
NNW 11.5 mph
(NNW 19 kph)
- 10SM
11:55
Clear
59°F / 15°C 54°F / 12°C 82% 30.06 in
(1018 mb)
NW 12.7 mph
(NW 20 kph)
- 10SM
11:35
Clear
59°F / 15°C 54°F / 12°C 82% 30.06 in
(1018 mb)
NW 11.5 mph
(NW 19 kph)
- 10SM
11:15
Clear
59°F / 15°C 54°F / 12°C 82% 30.06 in
(1018 mb)
NW 10.4 mph
(NW 17 kph)
- 10SM
10:55
Partly Cloudy
59°F / 15°C 54°F / 12°C 82% 30.06 in
(1018 mb)
NW 8.1 mph
(NW 13 kph)
- 10SM
10:35
Clear
57°F / 14°C 54°F / 12°C 88% 30.04 in
(1017 mb)
NW 8.1 mph
(NW 13 kph)
- 10SM
10:15
Clear
57°F / 14°C 52°F / 11°C 82% 30.04 in
(1017 mb)
NW 9.2 mph
(NW 15 kph)
- 10SM
09:55
Partly Cloudy
55°F / 13°C 52°F / 11°C 88% 30.04 in
(1017 mb)
NNW 8.1 mph
(NNW 13 kph)
- 10SM
09:35
Partly Cloudy
55°F / 13°C 52°F / 11°C 88% 30.04 in
(1017 mb)
NW 8.1 mph
(NW 13 kph)
- 10SM
09:15
Partly Cloudy
55°F / 13°C 52°F / 11°C 88% 30.04 in
(1017 mb)
NW 6.9 mph
(NW 11 kph)
- 7SM
08:55
Mostly Cloudy
55°F / 13°C 52°F / 11°C 88% 30.04 in
(1017 mb)
WNW 4.6 mph
(WNW 7 kph)
- 7SM
08:35
Mostly Cloudy
55°F / 13°C 54°F / 12°C 94% 30.04 in
(1017 mb)
E 5.8 mph
(E 9 kph)
- 10SM
08:15
Mostly Cloudy
54°F / 12°C 54°F / 12°C 100% 30.04 in
(1017 mb)
ENE 4.6 mph
(ENE 7 kph)
- 10SM
07:55
Mostly Cloudy
52°F / 11°C 52°F / 11°C 100% 30.04 in
(1017 mb)
Calm - 10SM
07:35
Mostly Cloudy
52°F / 11°C 52°F / 11°C 100% 30.04 in
(1017 mb)
ENE 3.5 mph
(ENE 6 kph)
- 10SM
07:15
Partly Cloudy
52°F / 11°C 52°F / 11°C 100% 30.04 in
(1017 mb)
NE 3.5 mph
(NE 6 kph)
- 10SM
06:55
Partly Cloudy
50°F / 10°C 50°F / 10°C 100% 30.01 in
(1016 mb)
E 3.5 mph
(E 6 kph)
- 7SM
06:35
Mostly Cloudy
Fog And Mist
50°F / 10°C 50°F / 10°C 100% 30.01 in
(1016 mb)
E 4.6 mph
(E 7 kph)
- 5SM
06:15
Overcast
Fog And Mist
50°F / 10°C 50°F / 10°C 100% 30.01 in
(1016 mb)
ESE 4.6 mph
(ESE 7 kph)
- 1 3/4SM
05:55
Overcast
Fog And Mist
48°F / 9°C 48°F / 9°C 100% 30.01 in
(1016 mb)
E 5.8 mph
(E 9 kph)
- 3/4SM
05:35
Overcast
Fog
46°F / 8°C 46°F / 8°C 100% 30.01 in
(1016 mb)
ENE 5.8 mph
(ENE 9 kph)
- 1/4SM
05:15
Overcast
Fog
46°F / 8°C 46°F / 8°C 100% 30.01 in
(1016 mb)
E 4.6 mph
(E 7 kph)
- 1/4SM
04:55
Overcast
Fog
45°F / 7°C 45°F / 7°C 100% 30.01 in
(1016 mb)
ENE 3.5 mph
(ENE 6 kph)
- 1/2SM
04:35
Mostly Cloudy
Fog
45°F / 7°C 45°F / 7°C 100% 30.01 in
(1016 mb)
E 4.6 mph
(E 7 kph)
- 1/2SM
04:15
Clear
46°F / 8°C 45°F / 7°C 93% 30.01 in
(1016 mb)
E 4.6 mph
(E 7 kph)
- 7SM
03:55
Obscured
Fog And Mist
46°F / 8°C 45°F / 7°C 93% 30.01 in
(1016 mb)
E 4.6 mph
(E 7 kph)
- 1 3/4SM
03:35
Clear
46°F / 8°C 46°F / 8°C 100% 30.01 in
(1016 mb)
E 5.8 mph
(E 9 kph)
- 7SM
03:15
Partly Cloudy
46°F / 8°C 46°F / 8°C 100% 30.01 in
(1016 mb)
E 4.6 mph
(E 7 kph)
- 10SM
02:55
Mostly Cloudy
46°F / 8°C 46°F / 8°C 100% 30.01 in
(1016 mb)
E 4.6 mph
(E 7 kph)
- 10SM
02:35
Overcast
48°F / 9°C 46°F / 8°C 94% 30.01 in
(1016 mb)
E 5.8 mph
(E 9 kph)
- 10SM
02:15
Overcast
48°F / 9°C 48°F / 9°C 100% 30.01 in
(1016 mb)
E 4.6 mph
(E 7 kph)
- 10SM
01:55
Overcast
Fog And Mist
48°F / 9°C 46°F / 8°C 94% 30.01 in
(1016 mb)
E 4.6 mph
(E 7 kph)
- 5SM
01:35
Mostly Cloudy
46°F / 8°C 46°F / 8°C 100% 30.01 in
(1016 mb)
E 4.6 mph
(E 7 kph)
- 10SM
01:15
Partly Cloudy
46°F / 8°C 45°F / 7°C 93% 30.01 in
(1016 mb)
E 3.5 mph
(E 6 kph)
- 10SM
00:55
Clear
46°F / 8°C 46°F / 8°C 100% 30.01 in
(1016 mb)
E 3.5 mph
(E 6 kph)
- 10SM
00:35
Clear
46°F / 8°C 46°F / 8°C 100% 30.01 in
(1016 mb)
Calm - 10SM
00:15
Clear
46°F / 8°C 46°F / 8°C 100% 30.01 in
(1016 mb)
Calm - 10SM
Time Weather Temperature Dewpoint Humidity Pressure Winds Precip Visibility


Weather for websites

WeatherForYou.com, LLC is not responsible for any damages or problems caused by this service. Current weather conditions are obtained from the closest station including government and personal stations which may have varying degrees of accuracy. Weather forecasts are derived from the NOAA NDFD. Like all things, this site belongs to Jesus Christ... He just trusts us to maintain it. If you have any questions or comments email webmaster@weatherforyou.com

Copyright © 2016, WeatherForYou.com LLC. All rights reserved.